Overview Statistics Trail Chart Weather Telemetry Raw packets
 

This is the latest recevied weather packets stored in our database for station/object K1BES. If no packets are shown the sender has not sent any weather packets the latest 10 day(s).

<< 93 94 95 96 97 98 99 >>
Time Temp. Humidity Pressure Rain* Wind** Luminosity Snow
1787954586 30° C 76% 1018.1 hPa 0 mm - 44 W/m² -
1787954285 30.56° C 76% 1018.3 hPa 0 mm - 46 W/m² -
1787953980 30.56° C 77% 1018.2 hPa 0 mm - 51 W/m² -
1787953679 30.56° C 76% 1018.2 hPa 0 mm - 58 W/m² -
1787953374 30.56° C 75% 1018.2 hPa 0 mm - 64 W/m² -
1787953072 31.11° C 74% 1018 hPa 0 mm - 70 W/m² -
1787952772 31.11° C 73% 1018.1 hPa 0 mm - 76 W/m² -
1787952466 31.11° C 72% 1018 hPa 0 mm - 83 W/m² -
1787952163 31.67° C 72% 1018.1 hPa 0 mm - 98 W/m² -
1787951861 32.22° C 71% 1017.9 hPa 0 mm - 113 W/m² -
1787951557 32.22° C 71% 1017.9 hPa 0 mm - 113 W/m² -
1787951253 32.22° C 71% 1018 hPa 0 mm - 111 W/m² -
1787950949 32.78° C 70% 1018.1 hPa 0 mm - 113 W/m² -
1787950644 32.78° C 70% 1017.8 hPa 0 mm - 103 W/m² -
1787950341 32.78° C 71% 1017.9 hPa 0 mm - 89 W/m² -
1787950036 32.78° C 70% 1017.9 hPa 0 mm - 76 W/m² -
1787949732 32.78° C 69% 1017.9 hPa 0 mm - 69 W/m² -
1787949431 32.78° C 69% 1018.2 hPa 0 mm - 68 W/m² -
1787949126 32.78° C 68% 1018.2 hPa 0 mm - 67 W/m² -
1787948823 33.33° C 66% 1018.2 hPa 0 mm - 68 W/m² -
1787948522 33.33° C 66% 1018 hPa 0 mm - 68 W/m² -
1787948217 33.89° C 65% 1018.2 hPa 0 mm - 78 W/m² -
1787947915 33.89° C 63% 1018.5 hPa 0 mm - 79 W/m² -
1787947611 34.44° C 62% 1018.3 hPa 0 mm - 686 W/m² -
1787947310 34.44° C 62% 1018.4 hPa 0 mm - 755 W/m² -

* Rain latest hour (hover to see other rain measurements)
** Current wind speed in m/s (hover to see current wind gust speed)